Location: Saratoga Springs
(43.0831°N, 73.7850°W)
Time: 12:21:05
(UTC-04:00)

Transit 4A - Pass Details

Date: 20 April 2024
Orbit: 871 x 971 km, 66.8° (Epoch: 20 May)

Event Time Altitude Azimuth Distance (km) Brightness Sun altitude
Rises 23:29:27 0° 319° (NW) 3,467 11.9 -31.6°
Reaches altitude 10° 23:32:15 10° 307° (NW) 2,528 10.8 -31.8°
Enters shadow 23:36:22 27° 263° (W) 1,638 9.3 -32.1°
